Home > Weather > Passaic > Past weeks

Flag for USA Past Weather in Passaic, New Jersey, USA — Yesterday and Last 2 Weeks

Now
85 °F

Sunny.


Feels Like: 84 °F
Forecast: 73 / 90 °F
Wind: 12 mph from Northwest

Location: Teterboro Airport

Current Time: Aug 29, 2016 at 7:41:13 PM

Latest Report: Aug 29, 2016 at 6:51 PM


Visibility: 10 mi

Pressure: 30.06 "Hg

Humidity: 36%

Dew Point: 55 °F

Location of PassaicLocation

Past Weather in Passaic — Graph

°F

Passaic Temperature Yesterday

Maximum temperature yesterday: 90 °F (at 1:51 PM)
Minimum temperature yesterday: 67 °F (at 5:51 AM)
Average temperature yesterday: 78 °F

High & Low Weather Summary for the Past Weeks

 TemperatureHumidityPressure
High93 °F (Aug 14, 5:51 PM)91% (Aug 21, 9:51 PM)30.32 "Hg (Aug 21, 9:51 PM)
Low58 °F (Aug 23, 5:51 AM)33% (Aug 23, 3:51 PM)29.74 "Hg (Aug 21, 7:51 PM)
Average79 °F61%30.05 "Hg
* Reported Aug 14 5:51 PM — Aug 29 5:51 PM, Passaic, Weather by CustomWeather, © 2016

Note: Actual official high and low records may vary slightly from our data, if they occured in-between our weather recording intervals... More about our weather records

Advertising

Passaic Weather History for the Previous 24 Hours

Scroll right to see more
 ConditionsComfort  
Time TempWeatherWind HumidityBarometerVisibility
5:51 PM
Mon, Aug 29
87 °FSunny.8 mph33%30.05 "Hg10 mi
4:51 PM88 °FSunny.15 mph36%30.04 "Hg10 mi
3:51 PM89 °FSunny.13 mph34%30.05 "Hg10 mi
2:51 PM90 °FSunny.10 mph33%30.06 "Hg10 mi
1:51 PM89 °FSunny.10 mph39%30.07 "Hg10 mi
12:51 PM88 °FSunny.8 mph43%30.09 "Hg10 mi
11:51 AM87 °FSunny.7 mph48%30.09 "Hg10 mi
10:51 AM86 °FSunny.13 mph48%30.10 "Hg10 mi
9:51 AM83 °FSunny.8 mph59%30.10 "Hg10 mi
8:51 AM79 °FSunny.6 mph62%30.11 "Hg10 mi
7:51 AM75 °FPassing clouds.3 mph69%30.11 "Hg10 mi
6:51 AM73 °FPassing clouds.3 mph74%30.11 "Hg10 mi
5:51 AM73 °FPassing clouds.6 mph74%30.09 "Hg10 mi
4:51 AM74 °FMostly cloudy.6 mph71%30.10 "Hg10 mi
3:51 AM74 °FOvercast.7 mph71%30.11 "Hg10 mi
2:51 AM74 °FPassing clouds.6 mph69%30.13 "Hg10 mi
1:51 AM74 °FPassing clouds.7 mph74%30.14 "Hg10 mi
12:51 AM74 °FClear.6 mph74%30.15 "Hg10 mi
11:51 PM
Sun, Aug 28
75 °FClear.8 mph71%30.16 "Hg10 mi
10:51 PM76 °FClear.5 mph72%30.16 "Hg10 mi
9:51 PM76 °FClear.8 mph67%30.14 "Hg10 mi
8:51 PM77 °FClear.8 mph64%30.14 "Hg10 mi
7:51 PM78 °FSunny.8 mph60%30.13 "Hg10 mi
Weather by CustomWeather, © 2016

See weather overviewHow to use our weather pages